Location: Fishcreek Rd Observing Site
(41.1865°N, 81.4271°W)
Time: 15:55:34
(UTC-04:00)

Iridium 75 - Visible Passes

Search period start: 04 August 2015 00:00
Search period end: 14 August 2015 00:00
Orbit: 776 x 779 km, 86.4° (Epoch: 04 August)

Date Brightness Start Highest point End Pass type
(mag) Time Alt. Az. Time Alt. Az. Time Alt. Az.
04 Aug 6.5 02:14:42 10° N 02:18:53 58° N 02:18:53 58° N visible
04 Aug 8.3 03:59:04 10° WNW 03:59:20 10° WNW 03:59:20 10° WNW visible
05 Aug 7.0 01:41:20 10° N 01:45:17 41° NE 01:45:17 41° NE visible
05 Aug 7.8 03:23:01 10° NW 03:25:44 19° WNW 03:25:44 19° WNW visible
06 Aug 7.7 01:08:18 10° NNE 01:11:41 25° ENE 01:11:41 25° ENE visible
06 Aug 7.3 02:48:42 10° NNW 02:52:09 31° NW 02:52:09 31° NW visible
07 Aug 8.3 00:35:57 10° NE 00:38:06 14° ENE 00:38:06 14° ENE visible
07 Aug 6.9 02:14:51 10° N 02:18:33 45° NNW 02:18:33 45° NNW visible
08 Aug 7.0 01:41:18 10° N 01:44:58 45° NNE 01:44:58 45° NNE visible
08 Aug 8.3 03:24:05 10° NW 03:25:26 13° WNW 03:25:26 13° WNW visible
09 Aug 7.5 01:08:02 10° NNE 01:11:24 31° NE 01:11:24 31° NE visible
09 Aug 7.8 02:49:12 10° NNW 02:51:52 22° NW 02:51:52 22° NW visible
10 Aug 8.0 00:35:12 10° NNE 00:37:50 19° ENE 00:37:50 19° ENE visible
10 Aug 7.4 02:15:06 10° NNW 02:18:17 33° NW 02:18:17 33° NW visible
11 Aug 8.5 00:03:35 10° NE 00:04:16 11° ENE 00:04:16 11° ENE visible
11 Aug 7.1 01:41:22 10° N 01:44:44 41° N 01:44:44 41° N visible
12 Aug 7.3 01:07:55 10° N 01:11:10 35° NNE 01:11:10 35° NNE visible
12 Aug 8.2 02:49:56 10° NW 02:51:38 15° WNW 02:51:38 15° WNW visible
13 Aug 7.8 00:34:49 10° NNE 00:37:37 24° NE 00:37:37 24° NE visible
13 Aug 7.8 02:15:29 10° NNW 02:18:05 24° NW 02:18:05 24° NW visible
